This is the latest recevied weather packets stored in our database for station/object W8RSN-13. If no packets are shown the sender has not sent any weather packets the latest 10 day(s).
| Time | Temp. | Humidity | Pressure | Rain* | Wind** | Luminosity | Snow |
|---|---|---|---|---|---|---|---|
| 1787859861 | 35° C | 43% | 1014 hPa | - | - | - | - |
| 1787859560 | 35° C | 44% | 1014.1 hPa | - | - | - | - |
| 1787859259 | 34.44° C | 44% | 1014.2 hPa | - | - | - | - |
| 1787858959 | 35° C | 43% | 1014.3 hPa | - | - | - | - |
| 1787858658 | 35° C | 39% | 1014.4 hPa | - | - | - | - |
| 1787858357 | 35° C | 36% | 1014.3 hPa | - | - | - | - |
| 1787858056 | 35° C | 34% | 1014.5 hPa | - | - | - | - |
| 1787857775 | 35° C | 34% | 1014.5 hPa | - | - | - | - |
| 1787857474 | 35° C | 34% | 1014.6 hPa | - | - | - | - |
| 1787857173 | 34.44° C | 35% | 1014.5 hPa | - | - | - | - |
| 1787856872 | 35° C | 35% | 1014.6 hPa | - | - | - | - |
| 1787856572 | 34.44° C | 34% | 1014.5 hPa | - | - | - | - |
| 1787856271 | 34.44° C | 35% | 1014.6 hPa | - | - | - | - |
| 1787855970 | 34.44° C | 36% | 1014.7 hPa | - | - | - | - |
| 1787855669 | 34.44° C | 36% | 1014.8 hPa | - | - | - | - |
| 1787855368 | 34.44° C | 37% | 1014.6 hPa | - | - | - | - |
| 1787855067 | 33.33° C | 38% | 1015 hPa | - | - | - | - |
| 1787854766 | 33.33° C | 38% | 1014.8 hPa | - | - | - | - |
| 1787854465 | 33.33° C | 38% | 1015.2 hPa | - | - | - | - |
| 1787854165 | 33.33° C | 38% | 1015.1 hPa | - | - | - | - |
| 1787853864 | 32.78° C | 40% | 1015.2 hPa | - | - | - | - |
| 1787853563 | 32.22° C | 41% | 1015.1 hPa | - | - | - | - |
| 1787853261 | 31.67° C | 43% | 1015.2 hPa | - | - | - | - |
| 1787852961 | 31.67° C | 43% | 1015.3 hPa | - | - | - | - |
| 1787852660 | 31.67° C | 44% | 1015.2 hPa | - | - | - | - |
* Rain since midnight (hover to see other rain measurements)
** Current wind speed in m/s (hover to see current wind gust speed)